Location: Nitra
(0.0000°N, 18.0833°E)
Time: 11:59:51
(UTC+02:00)

Transit 2A - All Passes

Search period start: 29 March 2023 00:00
Search period end: 08 April 2023 00:00
Orbit: 591 x 964 km, 66.7° (Epoch: 28 March)

Date Brightness Start Highest point End Pass type
(mag) Time Alt. Az. Time Alt. Az. Time Alt. Az.
29 Mar - 02:34:59 10° SSE 02:38:24 20° ESE 02:42:00 10° ENE night (unlit)
29 Mar - 04:17:43 10° WSW 04:21:14 21° WNW 04:25:00 10° NNW night (unlit)
29 Mar - 15:07:50 10° NNW 15:13:52 74° ENE 15:19:21 10° SSE daylight
30 Mar - 02:02:38 10° ESE 02:03:53 11° ESE 02:05:10 10° E night (unlit)
30 Mar - 03:42:18 10° SW 03:46:35 36° WNW 03:51:17 10° N night (unlit)
30 Mar - 14:33:33 10° N 14:39:16 44° ENE 14:44:31 10° SE daylight
30 Mar - 16:19:18 10° W 16:22:02 14° WSW 16:24:41 10° SW daylight
31 Mar - 03:07:22 10° SSW 03:11:59 65° WNW 03:17:05 10° NNE night (unlit)
31 Mar - 13:59:38 10° NNE 14:04:37 27° ENE 14:09:16 10° SE daylight
31 Mar - 15:42:59 10° WNW 15:47:31 23° WSW 15:51:46 10° SSW daylight
01 Apr - 02:32:47 10° SSW 02:37:25 70° ESE 02:42:32 10° NNE night (unlit)
01 Apr - 13:26:20 10° NNE 13:29:57 16° ENE 13:33:23 10° ESE daylight
01 Apr - 15:07:33 10° NW 15:13:00 38° WSW 15:18:01 10° S daylight
02 Apr - 01:58:34 10° S 02:02:53 38° ESE 02:07:35 10° NE night (unlit)
02 Apr - 03:44:31 10° W 03:45:56 11° WNW 03:47:23 10° NW night (unlit)
02 Apr - 14:32:34 10° NNW 14:38:28 64° WSW 14:43:50 10° S daylight
03 Apr - 01:24:49 10° SSE 01:28:23 21° ESE 01:32:10 10° ENE night (unlit)
03 Apr - 03:07:45 10° WSW 03:11:14 20° WNW 03:14:58 10° NNW night (unlit)
03 Apr - 13:57:54 10° NNW 14:03:54 77° ENE 14:09:19 10° SSE daylight
04 Apr - 00:52:07 10° SE 00:53:52 12° ESE 00:55:39 10° E night (unlit)
04 Apr - 02:32:16 10° SW 02:36:34 34° WNW 02:41:17 10° N night (unlit)
04 Apr - 13:23:35 10° N 13:29:18 46° ENE 13:34:30 10° SE daylight
04 Apr - 15:09:41 10° W 15:12:03 13° WSW 15:14:21 10° SW daylight
05 Apr - 01:57:18 10° SSW 02:01:58 62° WNW 02:07:07 10° N night (unlit)
05 Apr - 12:49:38 10° NNE 12:54:38 28° ENE 12:59:17 10° SE daylight
05 Apr - 14:33:10 10° WNW 14:37:31 22° WSW 14:41:36 10° SSW daylight
06 Apr - 01:22:42 10° SSW 01:27:23 74° ESE 01:32:35 10° NNE night (unlit)
06 Apr - 12:16:17 10° NNE 12:19:58 17° ENE 12:23:27 10° ESE daylight
06 Apr - 13:57:40 10° NW 14:03:00 36° WSW 14:07:54 10° S daylight
07 Apr - 00:48:26 10° S 00:52:51 40° ESE 00:57:40 10° NE night (unlit)
07 Apr - 02:34:42 10° W 02:35:55 11° WNW 02:37:08 10° NW night (unlit)
07 Apr - 13:22:38 10° NNW 13:28:28 61° WSW 13:33:45 10° S daylight
